Location: Nashville
(36.1660°N, 86.7840°W)
Time: 20:04:17
(UTC-05:00)

Tiros 1 - Pass Details

Date: 04 February 2022
Orbit: 629 x 663 km, 48.4° (Epoch: 27 May)

Event Time Altitude Azimuth Distance (km) Brightness Sun altitude
Rises 19:24:17 0° 266° (W) 2,977 11.9 -26.0°
Reaches altitude 10° 19:26:53 10° 278° (W) 2,071 10.7 -26.5°
Maximum altitude 19:31:04 30° 339° (NNW) 1,195 8.6 -27.3°
Enters shadow 19:31:20 29° 345° (NNW) 1,200 8.6 -27.4°
